Weather History for Papa, Hungary

Change the Weather History Date:

Tuesday, March 5, 2013

  Actual Average Record
Temperature  
Mean Temperature 42 °F -  
Max Temperature 53 °F - - ()
Min Temperature 30 °F - - ()
Degree Days  
Heating Degree Days 24    
Moisture  
Dew Point 24 °F    
Average Humidity 52    
Maximum Humidity 86    
Minimum Humidity 24    
Precipitation  
Precipitation 0.00 in - - ()
Sea Level Pressure  
Sea Level Pressure 30.19 in    
Wind  
Wind Speed 9 mph ()    
Max Wind Speed 20 mph    
Max Gust Speed 27 mph    
T = Trace of Precipitation, MM = Missing Value Source: Averaged Metar Reports

Daily Weather History Graph

Daily Weather History Graph

Search for Another Location

Airport:

Trip Planner

Search our weather history database for the weather conditions in past years. The results will help you decide how hot, cold, wet, or windy it might be!

Date:

Astronomy

Mar. 05, 2013 Rise Set
Actual Time 6:22 AM CET 5:41 PM CET
Civil Twilight 5:52 AM CET 6:11 PM CET
Nautical Twilight 5:16 AM CET 6:47 PM CET
Astronomical Twilight 4:40 AM CET 7:23 PM CET
Moon 1:34 AM CET (3/5) 10:44 AM CET (3/5)
Length of Visible Light 12h 19m
Length of Day
11h 18m
Last Quarter, 44% of the Moon is Illuminated
Mar 5
Last Quarter
Mar 11
New
Mar 19
First Quarter
Mar 27
Full
Apr 3
Last Quarter

Hourly Weather History & Observations

Time (CET) Temp. Windchill Dew Point Humidity Pressure Visibility Wind Dir Wind Speed Gust Speed Precip Events Conditions
12:45 AM 30.2 °F 25.5 °F 24.8 °F 80% 30.30 in - SE 4.5 mph - N/A   Clear
1:15 AM 30.2 °F 25.5 °F 24.8 °F 80% 30.30 in - SE 4.5 mph - N/A   Clear
1:45 AM 32.0 °F 27.6 °F 26.6 °F 80% 30.30 in - SE 4.5 mph - N/A   Clear
2:15 AM 30.2 °F - 26.6 °F 86% 30.30 in - SE 2.2 mph - N/A   Clear
2:45 AM 30.2 °F - 26.6 °F 86% 30.30 in - SE 2.2 mph - N/A   Clear
3:15 AM 30.2 °F 25.5 °F 26.6 °F 86% 30.30 in - South 4.5 mph - N/A   Clear
3:45 AM 33.8 °F 29.7 °F 26.6 °F 75% 30.30 in - South 4.5 mph - N/A   Clear
4:15 AM 33.8 °F 27.9 °F 26.6 °F 75% 30.30 in - South 6.7 mph - N/A   Clear
4:45 AM 32.0 °F 25.7 °F 24.8 °F 75% 30.30 in - South 6.7 mph - N/A   Clear
5:15 AM 32.0 °F 25.7 °F 24.8 °F 75% 30.27 in - SSE 6.7 mph - N/A   Clear
5:45 AM - - - N/A% - - South 11.2 mph - N/A   Clear
6:15 AM 35.6 °F 28.7 °F 24.8 °F 65% 30.27 in - SSE 8.9 mph - N/A   Clear
6:45 AM 33.8 °F 26.5 °F 24.8 °F 70% 30.27 in - South 8.9 mph - N/A   Clear
7:15 AM 35.6 °F 28.7 °F 24.8 °F 65% 30.27 in - SSE 8.9 mph - N/A   Clear
7:45 AM 37.4 °F 30.9 °F 26.6 °F 65% 30.27 in - SSE 8.9 mph - N/A   Clear
8:15 AM 41.0 °F 34.4 °F 26.6 °F 57% 30.27 in - SSE 11.2 mph - N/A   Clear
8:45 AM - - - N/A% - - South 13.4 mph - N/A   Clear
9:08 AM 44.6 °F 37.6 °F 24.8 °F 46% 30.27 in - SSE 15.7 mph 26.8 mph N/A   Clear
9:15 AM 44.6 °F 37.6 °F 24.8 °F 46% 30.27 in - SSE 15.7 mph 26.8 mph N/A   Clear
9:45 AM 46.4 °F 39.9 °F 24.8 °F 43% 30.27 in - SSE 15.7 mph 26.8 mph N/A   Clear
10:45 AM 48.2 °F - 23.0 °F 37% 30.24 in - SSE 17.9 mph - N/A   Clear
11:45 AM - - - N/A% - - South 13.4 mph - N/A   Clear
12:15 PM 50.0 °F - 21.2 °F 32% 30.21 in - SE 15.7 mph 26.8 mph N/A   Clear
12:45 PM 50.0 °F - 23.0 °F 35% 30.21 in - SE 15.7 mph 26.8 mph N/A   Clear
1:15 PM 51.8 °F - 23.0 °F 33% 30.18 in - SSE 15.7 mph 26.8 mph N/A   Clear
1:45 PM 51.8 °F - 21.2 °F 30% 30.18 in - SSE 15.7 mph - N/A   Clear
2:15 PM 53.6 °F - 23.0 °F 30% 30.15 in - SE 15.7 mph - N/A   Clear
2:45 PM - - - N/A% - - SSE 13.4 mph - N/A   Clear
3:15 PM 53.6 °F - 17.6 °F 24% 30.15 in - SSE 17.9 mph - N/A   Clear
3:45 PM 53.6 °F - 19.4 °F 26% 30.12 in - SSE 20.1 mph - N/A   Clear
4:15 PM 51.8 °F - 19.4 °F 28% 30.12 in - SSE 15.7 mph - N/A   Clear
4:45 PM 50.0 °F - 21.2 °F 32% 30.12 in - SSE 15.7 mph - N/A   Clear
5:15 PM 48.2 °F - 21.2 °F 34% 30.12 in - SSE 11.2 mph - N/A   Clear
5:45 PM - - - N/A% - - SSE 11.2 mph - N/A   Clear
6:15 PM 46.4 °F 41.2 °F 23.0 °F 40% 30.09 in - SSE 11.2 mph - N/A   Clear
6:45 PM 46.4 °F 41.2 °F 23.0 °F 40% 30.09 in - SSE 11.2 mph - N/A   Clear
7:15 PM 46.4 °F 39.9 °F 23.0 °F 40% 30.09 in - SSE 15.7 mph - N/A   Clear
7:45 PM 44.6 °F 38.2 °F 24.8 °F 46% 30.09 in - SSE 13.4 mph - N/A   Clear
8:15 PM 46.4 °F 42.0 °F 23.0 °F 40% 30.09 in - SE 8.9 mph - N/A   Clear
8:45 PM - - - N/A% - - SSE 11.2 mph - N/A   Clear
9:15 PM 46.4 °F 39.9 °F 24.8 °F 43% 30.06 in - SSE 15.7 mph - N/A   Clear
9:45 PM 44.6 °F 37.6 °F 24.8 °F 46% 30.09 in - SSE 15.7 mph - N/A   Clear
10:15 PM 44.6 °F 38.2 °F 24.8 °F 46% 30.06 in - SSE 13.4 mph - N/A   Clear
10:45 PM 44.6 °F 38.2 °F 24.8 °F 46% 30.06 in - SSE 13.4 mph - N/A   Clear
11:15 PM 46.4 °F 39.9 °F 24.8 °F 43% 30.06 in - SSE 15.7 mph - N/A   Clear
11:45 PM 46.4 °F 39.9 °F 26.6 °F 46% 30.06 in - SSE 15.7 mph - N/A   Clear